Location: Bottenau
(48.5138°N, 8.0462°E)
Time: 16:33:32
(UTC+00:00)

ARIANE 5 R/B - Pass Details

Date: 18 April 2021
Orbit: 620 x 656 km, 98.1° (Epoch: 02 May)

Event Time Altitude Azimuth Distance (km) Brightness Sun altitude
Exits shadow 20:09:19 29° 121° (ESE) 1,170 3.4 -16.2°
Maximum altitude 20:11:04 44° 69° (ENE) 883 3.1 -16.4°
Drops below altitude 10° 20:15:15 10° 358° (N) 2,023 5.8 -16.9°
Sets 20:17:31 0° 352° (N) 2,930 6.8 -17.2°
